This is the latest recevied weather packets stored in our database for station/object WX5RP. If no packets are shown the sender has not sent any weather packets the latest 10 day(s).
| Time | Temp. | Humidity | Pressure | Rain* | Wind** | Luminosity | Snow |
|---|---|---|---|---|---|---|---|
| 1777576516 | 18.33° C | 26% | 1020.2 hPa | 0 mm | - | 937 W/m² | - |
| 1777575918 | 18.33° C | 28% | 1020 hPa | 0 mm | - | 929 W/m² | - |
| 1777575317 | 17.78° C | 27% | 1020.3 hPa | 0 mm | - | 909 W/m² | - |
| 1777574716 | 17.78° C | 28% | 1020.6 hPa | 0 mm | - | 909 W/m² | - |
| 1777574116 | 17.22° C | 31% | 1020.5 hPa | 0 mm | - | 779 W/m² | - |
| 1777573516 | 17.22° C | 29% | 1020.7 hPa | 0 mm | - | 869 W/m² | - |
| 1777572916 | 17.22° C | 31% | 1021.1 hPa | 0 mm | - | 734 W/m² | - |
| 1777572316 | 17.22° C | 32% | 1020.5 hPa | 0 mm | - | 842 W/m² | - |
| 1777571716 | 16.67° C | 34% | 1020.9 hPa | 0 mm | - | 830 W/m² | - |
| 1777571116 | 16.11° C | 35% | 1020.9 hPa | 0 mm | - | 749 W/m² | - |
| 1777570516 | 15.56° C | 38% | 1021 hPa | 0 mm | - | 784 W/m² | - |
| 1777569916 | 15° C | 39% | 1021.5 hPa | 0 mm | - | 699 W/m² | - |
| 1777569316 | 14.44° C | 40% | 1021.2 hPa | 0 mm | - | 643 W/m² | - |
| 1777568716 | 14.44° C | 41% | 1020.9 hPa | 0 mm | - | 714 W/m² | - |
| 1777568116 | 13.33° C | 42% | 1021 hPa | 0 mm | - | 670 W/m² | - |
| 1777567516 | 12.78° C | 44% | 1020.7 hPa | 0 mm | - | 636 W/m² | - |
| 1777566916 | 12.78° C | 45% | 1021.1 hPa | 0 mm | - | 496 W/m² | - |
| 1777566316 | 11.67° C | 49% | 1020.9 hPa | 0 mm | - | 636 W/m² | - |
| 1777565716 | 11.11° C | 48% | 1020.8 hPa | 0 mm | - | 591 W/m² | - |
| 1777565116 | 11.11° C | 51% | 1021.3 hPa | 0 mm | - | 581 W/m² | - |
| 1777564516 | 10° C | 55% | 1021.3 hPa | 0 mm | - | 483 W/m² | - |
| 1777563916 | 9.44° C | 55% | 1021.2 hPa | 0 mm | - | 468 W/m² | - |
| 1777563315 | 8.89° C | 57% | 1021.5 hPa | 0 mm | - | 470 W/m² | - |
| 1777562716 | 8.89° C | 57% | 1021.9 hPa | 0 mm | - | 461 W/m² | - |
| 1777562116 | 7.78° C | 62% | 1022.2 hPa | 0 mm | - | 402 W/m² | - |
* Rain latest hour (hover to see other rain measurements)
** Current wind speed in m/s (hover to see current wind gust speed)